Location: Newark
(25.0000°N, 73.5000°E)
Time: 12:03:38
(UTC+00:00)

Transit 2A - All Passes

Search period start: 07 March 2021 00:00
Search period end: 17 March 2021 00:00
Orbit: 601 x 958 km, 66.7° (Epoch: 06 March)

Date Brightness Start Highest point End Pass type
(mag) Time Alt. Az. Time Alt. Az. Time Alt. Az.
07 Mar - 10:38:15 10° SE 10:40:55 14° ESE 10:43:30 10° ENE daylight
07 Mar - 12:18:15 10° SW 12:23:47 53° WNW 12:28:49 10° NNE daylight
07 Mar - 21:14:55 10° NNE 21:17:33 16° ENE 21:20:14 10° E night (unlit)
07 Mar - 22:56:46 10° NW 23:00:36 30° WSW 23:04:37 10° S night (unlit)
08 Mar - 11:43:54 10° SSW 11:49:39 85° WNW 11:54:49 10° NNE daylight
08 Mar - 22:22:15 10° NW 22:26:30 53° WSW 22:30:59 10° S night (unlit)
09 Mar - 11:09:52 10° S 11:15:30 61° ESE 11:20:36 10° NNE daylight
09 Mar - 12:56:36 10° W 12:58:46 12° WNW 13:00:54 10° NW daylight
09 Mar - 21:48:01 10° NNW 21:52:22 86° ENE 21:56:59 10° SSE night (unlit)
10 Mar - 10:36:09 10° S 10:41:23 38° ESE 10:46:09 10° NE daylight
10 Mar - 12:20:34 10° WSW 12:24:29 20° WNW 12:28:10 10° NNW daylight
10 Mar - 21:14:01 10° N 21:18:14 49° ENE 21:22:39 10° SE night (unlit)
11 Mar - 10:02:49 10° SSE 10:07:16 24° ESE 10:11:24 10° ENE daylight
11 Mar - 11:45:23 10° SW 11:50:15 30° WNW 11:54:43 10° N daylight
11 Mar - 20:40:15 10° N 20:44:02 28° ENE 20:47:58 10° ESE night (unlit)
11 Mar - 22:24:10 10° WNW 22:26:53 16° WSW 22:29:42 10° SW night (unlit)
12 Mar - 09:30:10 10° SE 09:33:11 15° ESE 09:36:03 10° ENE daylight
12 Mar - 11:10:39 10° SW 11:16:04 48° WNW 11:20:59 10° N daylight
12 Mar - 20:06:53 10° NNE 20:09:48 17° ENE 20:12:48 10° ESE night (unlit)
12 Mar - 21:49:05 10° NW 21:52:49 27° WSW 21:56:43 10° SSW night (unlit)
13 Mar - 10:36:15 10° SSW 10:41:54 77° WNW 10:47:00 10° NNE daylight
13 Mar - 19:34:54 10° NE 19:35:30 10° ENE 19:36:06 10° ENE night (unlit)
13 Mar - 21:14:30 10° NW 21:18:43 47° WSW 21:23:11 10° S night (unlit)
14 Mar - 10:02:09 10° SSW 10:07:46 67° ESE 10:12:50 10° NNE daylight
14 Mar - 11:49:42 10° WNW 11:51:04 11° WNW 11:52:25 10° NW daylight
14 Mar - 20:40:13 10° NNW 20:44:36 85° WSW 20:49:14 10° SSE night (unlit)
15 Mar - 09:28:21 10° S 09:33:38 41° ESE 09:38:26 10° NE daylight
15 Mar - 11:13:11 10° WSW 11:16:46 18° WNW 11:20:08 10° NNW daylight
15 Mar - 20:06:09 10° NNW 20:10:27 55° ENE 20:14:59 10° SE night (unlit)
16 Mar - 08:54:56 10° SSE 08:59:31 26° ESE 09:03:46 10° NE daylight
16 Mar - 10:37:53 10° WSW 10:42:31 27° WNW 10:46:48 10° N daylight
16 Mar - 19:32:21 10° N 19:36:16 32° ENE 19:40:22 10° SE night (unlit)
16 Mar - 21:16:38 10° WNW 21:19:05 15° WSW 21:21:39 10° SW night (unlit)
